SHT13K EGNT-EGLL

Flight info

Callsign SHT13K
Flight time 0h 54m
Altitude 27000
Route GIRLI P18 GASKO P16 RIBEL UP16 CROFT DCT NUGRA
Aircraft A320/M-SDE3FGHIRWY/LB1

Departure

Time 2026-04-30 18:36
Airport Newcastle International Airport (EGNT)

Arrival

Time 2026-04-30 19:30
Airport London Heathrow Airport (EGLL)
Time Latitude Longitude Altitude Speed Heading
2026-04-30 18:11 55.03667 -1.70778 268 ft 0 kts
2026-04-30 18:28 55.03637 -1.70782 267 ft 2 kts
2026-04-30 18:29 55.03615 -1.70781 267 ft 4 kts 334°
2026-04-30 18:29 55.03592 -1.70662 267 ft 4 kts 273°
2026-04-30 18:30 55.03592 -1.70579 267 ft 4 kts 266°
2026-04-30 18:30 55.03597 -1.70485 267 ft 4 kts 263°
2026-04-30 18:31 55.03599 -1.70449 267 ft 4 kts 264°
2026-04-30 18:31 55.03601 -1.70359 267 ft 1 kts 274°
2026-04-30 18:32 55.03601 -1.70358 267 ft 0 kts 274°
2026-04-30 18:33 55.03597 -1.70489 267 ft 8 kts 264°
2026-04-30 18:33 55.03587 -1.70600 267 ft 10 kts 250°
2026-04-30 18:34 55.03519 -1.70642 267 ft 12 kts 181°
2026-04-30 18:34 55.03365 -1.70608 268 ft 8 kts 114°
2026-04-30 18:34 55.03374 -1.70553 267 ft 0 kts 65°
2026-04-30 18:35 55.03391 -1.70491 267 ft 15 kts 65°
2026-04-30 18:35 55.03514 -1.70022 263 ft 76 kts 66°
2026-04-30 18:35 55.03821 -1.68870 252 ft 129 kts 65°
2026-04-30 18:36 55.04652 -1.65776 1208 ft 140 kts 71°
2026-04-30 18:36 55.05076 -1.64156 1498 ft 156 kts 72°
2026-04-30 18:36 55.06095 -1.60178 1998 ft 202 kts 75°
2026-04-30 18:37 55.06640 -1.57827 2509 ft 210 kts 86°
2026-04-30 18:37 55.06464 -1.55432 3233 ft 199 kts 122°
2026-04-30 18:37 55.05533 -1.53657 3779 ft 208 kts 152°
2026-04-30 18:37 55.04054 -1.53113 4146 ft 232 kts 178°
2026-04-30 18:38 55.02397 -1.53147 4894 ft 241 kts 179°
2026-04-30 18:38 55.00700 -1.53185 5684 ft 247 kts 179°
2026-04-30 18:38 54.98980 -1.53221 6596 ft 249 kts 181°
2026-04-30 18:38 54.97264 -1.53759 7422 ft 255 kts 195°
2026-04-30 18:39 54.95652 -1.55133 8272 ft 261 kts 207°
2026-04-30 18:39 54.94089 -1.56775 9114 ft 263 kts 206°
2026-04-30 18:39 54.92506 -1.58421 9926 ft 267 kts 206°
2026-04-30 18:39 54.90894 -1.60085 10575 ft 276 kts 206°
2026-04-30 18:40 54.89172 -1.61847 10790 ft 299 kts 206°
2026-04-30 18:40 54.87346 -1.63713 11138 ft 315 kts 207°
2026-04-30 18:40 54.85443 -1.65664 11745 ft 320 kts 207°
2026-04-30 18:40 54.83513 -1.67645 12421 ft 324 kts 207°
2026-04-30 18:41 54.81566 -1.69642 13099 ft 327 kts 207°
2026-04-30 18:41 54.79592 -1.71665 13767 ft 331 kts 207°
2026-04-30 18:41 54.77603 -1.73698 14375 ft 334 kts 207°
2026-04-30 18:41 54.75584 -1.75759 14944 ft 338 kts 207°
2026-04-30 18:42 54.73548 -1.77835 15491 ft 342 kts 207°
2026-04-30 18:42 54.69133 -1.80960 16542 ft 346 kts 189°
2026-04-30 18:42 54.66752 -1.81709 17080 ft 350 kts 188°
2026-04-30 18:45 54.41787 -1.89574 22399 ft 374 kts 188°
2026-04-30 18:45 54.39217 -1.90378 22901 ft 376 kts 188°
2026-04-30 18:45 54.36637 -1.91187 23407 ft 378 kts 188°
2026-04-30 18:46 54.34048 -1.91998 23878 ft 379 kts 188°
2026-04-30 18:46 54.31446 -1.92808 24289 ft 381 kts 188°
2026-04-30 18:46 54.28829 -1.93623 24695 ft 383 kts 188°
2026-04-30 18:46 54.26202 -1.94452 25077 ft 385 kts 190°
2026-04-30 18:47 54.23630 -1.95827 25457 ft 390 kts 200°
2026-04-30 18:47 54.21226 -1.98046 25823 ft 397 kts 211°
2026-04-30 18:47 54.19070 -2.01054 26181 ft 404 kts 219°
2026-04-30 18:47 54.17024 -2.04352 26547 ft 406 kts 219°
2026-04-30 18:48 54.14961 -2.07665 26925 ft 408 kts 219°
2026-04-30 18:48 54.12890 -2.10985 27180 ft 409 kts 219°
2026-04-30 18:48 54.10831 -2.14283 27214 ft 402 kts 219°
2026-04-30 18:48 54.08824 -2.17493 27211 ft 399 kts 218°
2026-04-30 18:49 54.06776 -2.20757 27211 ft 398 kts 218°
2026-04-30 18:49 54.04781 -2.23927 27213 ft 398 kts 218°
2026-04-30 18:49 54.02714 -2.27043 27212 ft 394 kts 213°
2026-04-30 18:49 54.00424 -2.29534 27208 ft 389 kts 203°
2026-04-30 18:50 53.97947 -2.31339 27199 ft 387 kts 197°
2026-04-30 18:50 53.95426 -2.32951 27197 ft 387 kts 197°
2026-04-30 18:50 53.92914 -2.34564 27197 ft 386 kts 197°
2026-04-30 18:50 53.90402 -2.36182 27192 ft 386 kts 198°
2026-04-30 18:51 53.87885 -2.37803 27190 ft 386 kts 198°
2026-04-30 18:51 53.85371 -2.39418 27191 ft 386 kts 197°
2026-04-30 18:51 53.82858 -2.41028 27192 ft 386 kts 197°
2026-04-30 18:51 53.80341 -2.42638 27192 ft 386 kts 197°
2026-04-30 18:52 53.77826 -2.44246 27192 ft 386 kts 197°
2026-04-30 18:52 53.75308 -2.45852 27193 ft 387 kts 197°
2026-04-30 18:52 53.72793 -2.47452 27194 ft 387 kts 197°
2026-04-30 18:52 53.70276 -2.49051 27189 ft 387 kts 197°
2026-04-30 18:53 53.67759 -2.50650 27181 ft 387 kts 197°
2026-04-30 18:53 53.65251 -2.52095 27182 ft 385 kts 191°
2026-04-30 18:53 53.62620 -2.52804 27183 ft 382 kts 181°
2026-04-30 18:53 53.59975 -2.52667 27183 ft 380 kts 171°
2026-04-30 18:54 53.57390 -2.51778 27184 ft 380 kts 166°
2026-04-30 18:54 53.54825 -2.50745 27183 ft 380 kts 166°
2026-04-30 18:54 53.52250 -2.49714 27184 ft 380 kts 166°
2026-04-30 18:54 53.49676 -2.48692 27179 ft 380 kts 166°
2026-04-30 18:55 53.47105 -2.47677 27177 ft 380 kts 166°
2026-04-30 18:55 53.41955 -2.45653 27197 ft 380 kts 167°
2026-04-30 18:55 53.39379 -2.44641 27199 ft 380 kts 166°
2026-04-30 18:56 53.34231 -2.42608 27202 ft 380 kts 166°
2026-04-30 18:56 53.31657 -2.41593 27201 ft 380 kts 166°
2026-04-30 18:56 53.29080 -2.40577 27202 ft 380 kts 166°
2026-04-30 18:57 53.23931 -2.38561 27202 ft 380 kts 167°
2026-04-30 18:57 53.21353 -2.37556 27207 ft 380 kts 166°
2026-04-30 18:57 53.18775 -2.36552 27205 ft 380 kts 166°
2026-04-30 18:58 53.13622 -2.34543 27202 ft 380 kts 166°
2026-04-30 18:58 53.11041 -2.33536 27198 ft 380 kts 166°
2026-04-30 18:58 53.08464 -2.32530 27195 ft 380 kts 166°
2026-04-30 18:59 53.03354 -2.30287 27192 ft 380 kts 159°
2026-04-30 19:00 52.96537 -2.23633 27183 ft 381 kts 149°
2026-04-30 19:00 52.94295 -2.21277 27190 ft 382 kts 149°
2026-04-30 19:00 52.89802 -2.16572 27189 ft 382 kts 149°
2026-04-30 19:01 52.85306 -2.11878 27194 ft 382 kts 149°
2026-04-30 19:01 52.83056 -2.09534 27193 ft 382 kts 149°
2026-04-30 19:02 52.78549 -2.04852 27194 ft 382 kts 149°
2026-04-30 19:02 52.74044 -2.00177 27177 ft 382 kts 149°
2026-04-30 19:03 52.69536 -1.95509 27177 ft 383 kts 149°
2026-04-30 19:03 52.65049 -1.90879 27154 ft 382 kts 149°
2026-04-30 19:04 52.60636 -1.86330 26642 ft 368 kts 149°
2026-04-30 19:04 52.56321 -1.81893 26154 ft 364 kts 149°
2026-04-30 19:05 52.52026 -1.77492 25653 ft 361 kts 149°
2026-04-30 19:05 52.47807 -1.73175 25178 ft 358 kts 149°
2026-04-30 19:06 52.43630 -1.68916 24586 ft 348 kts 149°
2026-04-30 19:06 52.41583 -1.66833 24213 ft 345 kts 149°
2026-04-30 19:06 52.37546 -1.62718 23407 ft 338 kts 149°
2026-04-30 19:07 52.33604 -1.58708 22637 ft 329 kts 149°
2026-04-30 19:07 52.31674 -1.56749 22300 ft 324 kts 149°
2026-04-30 19:08 52.27874 -1.52911 21536 ft 318 kts 149°
2026-04-30 19:08 52.24144 -1.49155 20769 ft 312 kts 149°
2026-04-30 19:08 52.22291 -1.47285 20075 ft 318 kts 148°
2026-04-30 19:09 52.18793 -1.42611 18771 ft 331 kts 140°
2026-04-30 19:09 52.17048 -1.40160 18280 ft 331 kts 140°
2026-04-30 19:09 52.15306 -1.37727 17777 ft 329 kts 140°
2026-04-30 19:10 52.11857 -1.32929 16853 ft 324 kts 140°
2026-04-30 19:10 52.08457 -1.28215 15963 ft 319 kts 140°
2026-04-30 19:11 52.06774 -1.25883 15531 ft 317 kts 140°
2026-04-30 19:11 52.03504 -1.21347 15221 ft 296 kts 141°
2026-04-30 19:11 52.01976 -1.19229 15187 ft 282 kts 141°
2026-04-30 19:12 52.00517 -1.17214 15192 ft 269 kts 141°
2026-04-30 19:12 51.99126 -1.15296 15189 ft 256 kts 141°
2026-04-30 19:12 51.97780 -1.13437 15191 ft 253 kts 141°
2026-04-30 19:13 51.95101 -1.09733 15063 ft 256 kts 141°
2026-04-30 19:13 51.92327 -1.05915 14143 ft 268 kts 141°
2026-04-30 19:13 51.90927 -1.03994 14014 ft 260 kts 141°
2026-04-30 19:14 51.90023 -1.02754 13923 ft 255 kts 141°
2026-04-30 19:14 51.88679 -1.00907 13674 ft 252 kts 141°
2026-04-30 19:14 51.87347 -0.99079 13374 ft 250 kts 141°
2026-04-30 19:14 51.86024 -0.97252 13057 ft 250 kts 138°
2026-04-30 19:15 51.84932 -0.95066 12725 ft 252 kts 122°
2026-04-30 19:15 51.83373 -0.89953 12120 ft 253 kts 119°
2026-04-30 19:15 51.82600 -0.87410 11838 ft 252 kts 119°
2026-04-30 19:16 51.81824 -0.84873 11559 ft 251 kts 119°
2026-04-30 19:16 51.81050 -0.82346 11276 ft 250 kts 119°
2026-04-30 19:16 51.79517 -0.77353 10719 ft 249 kts 119°
2026-04-30 19:17 51.78743 -0.74843 10442 ft 249 kts 119°
2026-04-30 19:17 51.77205 -0.69854 9906 ft 247 kts 119°
2026-04-30 19:17 51.76442 -0.67377 9633 ft 246 kts 119°
2026-04-30 19:18 51.75174 -0.63275 9176 ft 245 kts 119°
2026-04-30 19:18 51.74150 -0.59971 8568 ft 253 kts 118°
2026-04-30 19:18 51.73363 -0.57427 8371 ft 250 kts 119°
2026-04-30 19:19 51.72499 -0.55053 8242 ft 240 kts 135°
2026-04-30 19:19 51.71139 -0.53655 8091 ft 232 kts 165°
2026-04-30 19:19 51.68165 -0.55006 7459 ft 238 kts 223°
2026-04-30 19:20 51.67110 -0.57084 7153 ft 241 kts 230°
2026-04-30 19:20 51.66140 -0.59244 6917 ft 239 kts 231°
2026-04-30 19:20 51.64272 -0.63493 6526 ft 229 kts 231°
2026-04-30 19:21 51.63361 -0.65585 6255 ft 227 kts 231°
2026-04-30 19:21 51.61567 -0.69725 5705 ft 224 kts 231°
2026-04-30 19:22 51.59799 -0.73801 5188 ft 220 kts 231°
2026-04-30 19:22 51.57272 -0.79707 4668 ft 204 kts 231°
2026-04-30 19:23 51.54354 -0.83138 4032 ft 170 kts 182°
2026-04-30 19:24 51.51977 -0.83501 4010 ft 173 kts 181°
2026-04-30 19:24 51.50782 -0.83672 4006 ft 173 kts 181°
2026-04-30 19:24 51.48606 -0.82722 3667 ft 165 kts 139°
2026-04-30 19:25 51.47595 -0.77633 3004 ft 168 kts 95°
2026-04-30 19:26 51.47619 -0.73607 3004 ft 171 kts 95°
2026-04-30 19:26 51.47643 -0.69861 2688 ft 159 kts 95°
2026-04-30 19:26 51.47654 -0.68163 2508 ft 145 kts 96°
2026-04-30 19:27 51.47670 -0.65009 2129 ft 140 kts 95°
2026-04-30 19:27 51.47705 -0.62055 1785 ft 137 kts 95°
2026-04-30 19:28 51.47700 -0.60522 1586 ft 137 kts 94°
2026-04-30 19:28 51.47717 -0.57456 1215 ft 137 kts 92°
2026-04-30 19:29 51.47725 -0.54417 823 ft 137 kts 90°
2026-04-30 19:29 51.47732 -0.52894 680 ft 136 kts 89°
2026-04-30 19:30 51.47750 -0.48324 118 ft 135 kts 88°
2026-04-30 19:30 51.47760 -0.46148 86 ft 49 kts 89°
2026-04-30 19:31 51.47715 -0.45477 87 ft 18 kts 155°
2026-04-30 19:31 51.47616 -0.45477 88 ft 12 kts 205°
2026-04-30 19:31 51.47596 -0.45772 90 ft 16 kts 269°
2026-04-30 19:32 51.47594 -0.45957 86 ft 18 kts 269°
2026-04-30 19:32 51.47593 -0.46167 86 ft 20 kts 270°
2026-04-30 19:32 51.47593 -0.46399 86 ft 22 kts 270°
2026-04-30 19:32 51.47592 -0.46654 86 ft 23 kts 269°
2026-04-30 19:33 51.47584 -0.46899 86 ft 22 kts 265°
2026-04-30 19:33 51.47582 -0.47148 90 ft 24 kts 270°
2026-04-30 19:33 51.47582 -0.47429 87 ft 26 kts 270°
2026-04-30 19:33 51.47581 -0.47737 90 ft 29 kts 270°
2026-04-30 19:34 51.47579 -0.48031 89 ft 23 kts 269°
2026-04-30 19:34 51.47578 -0.48297 89 ft 25 kts 269°
2026-04-30 19:34 51.47576 -0.48806 86 ft 19 kts 269°
2026-04-30 19:35 51.47562 -0.48944 90 ft 10 kts 225°
2026-04-30 19:35 51.47491 -0.48954 90 ft 11 kts 179°
2026-04-30 19:35 51.47431 -0.48953 86 ft 6 kts 179°
2026-04-30 19:35 51.47419 -0.48953 87 ft 1 kts 180°
2026-04-30 19:36 51.47417 -0.48953 88 ft 0 kts 180°